GOES 9 [-]

Last updated on Oct. 25, 2020, 5:55 a.m. UTC

1 23581U 95025A   20298.65521237 -.00000036  00000-0  00000+0 0  9991
2 23581  12.1445  28.6034 0003691  91.1791   2.1106  0.98800013 92389
UTC
Height (km)
Latitude
Longitude
Inclination
Orbital Period
UTC large
Height (km)
Speed (km/s)
/
Latitude / Longitude
Inclination (degrees)
Orbital Period (minutes)
Azimuth
Elevation
Range (km)
Doppler Factor
iOS Compass Heading
iOS Angle

Next 30 passes for location: Hong Kong

Rise time Rise Azimuth (degrees) Set time Set Azimuth (degrees) Duration Max altitude (degrees)

No matching passes for this satellites